Weather History for KGEV - December, 2010

Change the Weather History Date:

Tuesday, December 7, 2010

  Actual Average Record
Temperature  
Mean Temperature 14 °F -  
Max Temperature 17 °F 47 °F 75 °F (1998)
Min Temperature 10 °F 23 °F 0 °F (1977)
Degree Days  
Heating Degree Days 52    
Moisture  
Dew Point 4 °F    
Average Humidity 67    
Maximum Humidity 73    
Minimum Humidity 58    
Precipitation  
Precipitation 0.00 in - - ()
Sea Level Pressure  
Sea Level Pressure 29.80 in    
Wind  
Wind Speed 13 mph (NW)    
Max Wind Speed 31 mph    
Max Gust Speed 59 mph    
Visibility 6 miles    
Events Snow    
Averages and records for this station are not official NWS values.
T = Trace of Precipitation, MM = Missing Value Source: NWS Daily Summary

Daily Weather History Graph

Daily Weather History Graph

Search for Another Location

Airport or City:

Trip Planner

Search our weather history database for the weather conditions in past years. The results will help you decide how hot, cold, wet, or windy it might be!

Date:

Astronomy

Dec. 07, 2010 Rise Set
Actual Time 7:24 AM EST 5:10 PM EST
Civil Twilight 6:55 AM EST 5:38 PM EST
Nautical Twilight 6:23 AM EST 6:10 PM EST
Astronomical Twilight 5:52 AM EST 6:42 PM EST
Moon 9:08 AM EST (12/7) 7:07 PM EST (12/7)
Length of Visible Light 10h 43m
Length of Day
9h 46m
Waxing Crescent, 4% of the Moon is Illuminated
Dec 7
Waxing Crescent
Dec 13
First Quarter
Dec 21
Full
Dec 27
Last Quarter
Jan 4
New

Hourly Weather History & Observations

Time (EST) Temp. Windchill Dew Point Humidity Pressure Visibility Wind Dir Wind Speed Gust Speed Precip Events Conditions
12:03 AM 10.4 °F -4.1 °F 1.4 °F 67% 29.75 in 5.0 mi West 11.5 mph 34.5 mph N/A Snow Light Snow
12:21 AM 10.4 °F 2.2 °F 3.2 °F 73% 29.76 in 7.0 mi West 4.6 mph 19.6 mph N/A Snow Light Snow
12:41 AM 10.4 °F 0.8 °F 3.2 °F 73% 29.75 in 5.0 mi WNW 5.8 mph 21.9 mph N/A Snow Light Snow
1:01 AM 10.4 °F 2.2 °F 3.2 °F 73% 29.75 in 3.0 mi WNW 4.6 mph - N/A Snow Light Snow
1:21 AM 10.4 °F -1.5 °F 3.2 °F 73% 29.73 in 2.5 mi West 8.1 mph - N/A Snow Light Snow
1:41 AM 10.4 °F 0.8 °F 3.2 °F 73% 29.72 in 3.0 mi NNW 5.8 mph - N/A Snow Light Snow
2:01 AM 10.4 °F -0.4 °F 3.2 °F 73% 29.72 in 2.0 mi NNE 6.9 mph 26.5 mph N/A Snow Light Snow
2:21 AM 10.4 °F -0.4 °F 3.2 °F 73% 29.72 in 2.0 mi WSW 6.9 mph 23.0 mph N/A Snow Light Snow
2:41 AM 10.4 °F 2.2 °F 3.2 °F 73% 29.71 in 3.0 mi ESE 4.6 mph 25.3 mph N/A Snow Light Snow
3:01 AM 10.4 °F 0.8 °F 3.2 °F 73% 29.72 in 3.0 mi SE 5.8 mph 19.6 mph N/A Snow Light Snow
3:21 AM 10.4 °F -2.4 °F 3.2 °F 73% 29.72 in 3.0 mi NNE 9.2 mph 20.7 mph N/A Snow Light Snow
3:41 AM 10.4 °F -4.1 °F 3.2 °F 73% 29.71 in 2.5 mi NW 11.5 mph 18.4 mph N/A Snow Light Snow
4:21 AM 10.4 °F -6.0 °F 3.2 °F 73% 29.70 in 1.5 mi West 15.0 mph 39.1 mph N/A Snow Light Snow
4:41 AM 10.4 °F -6.0 °F 1.4 °F 67% 29.70 in 2.0 mi WNW 15.0 mph 49.5 mph N/A Snow Light Snow
5:01 AM 10.4 °F -10.7 °F 1.4 °F 67% 29.70 in 1.5 mi WNW 26.5 mph 58.7 mph N/A Snow Light Snow
5:21 AM 10.4 °F -11.7 °F 3.2 °F 73% 29.69 in 2.0 mi WNW 29.9 mph 44.9 mph N/A Snow Light Snow
5:41 AM 10.4 °F -12.0 °F 1.4 °F 67% 29.69 in 4.0 mi WNW 31.1 mph 55.2 mph N/A Snow Light Snow
6:01 AM 10.4 °F -11.4 °F 1.4 °F 67% 29.71 in 3.0 mi NW 28.8 mph 49.5 mph N/A Snow Light Snow
6:21 AM 10.4 °F -8.6 °F 1.4 °F 67% 29.72 in 7.0 mi WNW 20.7 mph 36.8 mph N/A   Scattered Clouds
6:43 AM 10.4 °F -7.7 °F 3.2 °F 73% 29.73 in 5.0 mi WNW 18.4 mph 28.8 mph N/A Snow Light Snow
7:03 AM 10.4 °F -8.6 °F 3.2 °F 73% 29.73 in 2.5 mi WNW 20.7 mph 41.4 mph N/A Snow Light Snow
7:21 AM 10.4 °F -8.2 °F 3.2 °F 73% 29.75 in 4.0 mi NW 19.6 mph 29.9 mph N/A Snow Light Snow
7:41 AM 10.4 °F -6.6 °F 3.2 °F 73% 29.76 in 2.0 mi NW 16.1 mph 33.4 mph N/A Snow Light Snow
8:01 AM 10.4 °F -7.2 °F 3.2 °F 73% 29.76 in 2.5 mi NW 17.3 mph 27.6 mph N/A Snow Light Snow
8:21 AM 10.4 °F -9.5 °F 3.2 °F 73% 29.76 in 3.0 mi WNW 23.0 mph 34.5 mph N/A Snow Light Snow
8:41 AM 12.2 °F -5.3 °F 3.2 °F 67% 29.77 in 1.8 mi NW 18.4 mph 27.6 mph N/A Snow Light Snow
9:01 AM 12.2 °F -6.3 °F 3.2 °F 67% 29.77 in 4.0 mi NW 20.7 mph 31.1 mph N/A Snow Light Snow
9:21 AM 12.2 °F -3.7 °F 3.2 °F 67% 29.79 in 7.0 mi NW 15.0 mph 27.6 mph N/A   Scattered Clouds
9:41 AM 14.0 °F -2.0 °F 3.2 °F 62% 29.79 in 7.0 mi NW 16.1 mph 23.0 mph N/A   Mostly Cloudy
10:03 AM 14.0 °F -4.7 °F 3.2 °F 62% 29.78 in 5.0 mi NW 23.0 mph 34.5 mph N/A   Haze
10:41 AM 14.0 °F -3.4 °F 5.0 °F 67% 29.79 in 7.0 mi NW 19.6 mph 29.9 mph N/A   Mostly Cloudy
11:01 AM 14.0 °F 0.5 °F 5.0 °F 67% 29.80 in 7.0 mi NNW 11.5 mph 34.5 mph N/A   Scattered Clouds
11:21 AM 14.0 °F -2.5 °F 5.0 °F 67% 29.81 in 4.0 mi WNW 17.3 mph 29.9 mph N/A Snow Light Snow
11:41 AM 15.8 °F 0.3 °F 5.0 °F 62% 29.81 in 4.0 mi NNW 16.1 mph 28.8 mph N/A Snow Light Snow
12:03 PM 15.8 °F 0.9 °F 5.0 °F 62% 29.81 in 7.0 mi NW 15.0 mph 27.6 mph N/A   Mostly Cloudy
12:21 PM 15.8 °F 3.4 °F 5.0 °F 62% 29.81 in 7.0 mi NW 10.4 mph 26.5 mph N/A Snow Light Snow
12:41 PM 15.8 °F -0.6 °F 5.0 °F 62% 29.81 in 10.0 mi NW 18.4 mph 29.9 mph N/A   Overcast
1:01 PM 15.8 °F 4.2 °F 5.0 °F 62% 29.81 in 10.0 mi NW 9.2 mph 25.3 mph N/A   Mostly Cloudy
1:21 PM 17.6 °F 3.2 °F 5.0 °F 58% 29.81 in 10.0 mi NW 15.0 mph 24.2 mph N/A   Mostly Cloudy
1:43 PM 15.8 °F 4.2 °F 5.0 °F 62% 29.82 in 10.0 mi West 9.2 mph 27.6 mph N/A   Overcast
2:21 PM 15.8 °F 1.4 °F 5.0 °F 62% 29.82 in 7.0 mi WNW 13.8 mph 23.0 mph N/A   Overcast
2:41 PM 15.8 °F 5.1 °F 5.0 °F 62% 29.83 in 10.0 mi WNW 8.1 mph 17.3 mph N/A   Mostly Cloudy
3:01 PM 15.8 °F 2.1 °F 5.0 °F 62% 29.84 in 10.0 mi WNW 12.7 mph 21.9 mph N/A   Mostly Cloudy
3:21 PM 15.8 °F 3.4 °F 5.0 °F 62% 29.84 in 7.0 mi NW 10.4 mph 26.5 mph N/A   Overcast
3:41 PM 15.8 °F 2.1 °F 5.0 °F 62% 29.84 in 10.0 mi WNW 12.7 mph 23.0 mph N/A   Overcast
4:01 PM 15.8 °F 0.9 °F 5.0 °F 62% 29.84 in 10.0 mi WNW 15.0 mph 29.9 mph N/A   Mostly Cloudy
4:21 PM 15.8 °F 0.3 °F 5.0 °F 62% 29.85 in 10.0 mi NW 16.1 mph 24.2 mph N/A   Mostly Cloudy
4:41 PM 15.8 °F 1.4 °F 5.0 °F 62% 29.85 in 10.0 mi NW 13.8 mph 29.9 mph N/A   Overcast
5:01 PM 14.0 °F -0.2 °F 5.0 °F 67% 29.86 in 7.0 mi NW 12.7 mph 23.0 mph N/A Snow Light Snow
5:21 PM 14.0 °F -0.2 °F 5.0 °F 67% 29.86 in 10.0 mi NW 12.7 mph 20.7 mph N/A Snow Light Snow
5:41 PM 14.0 °F 0.5 °F 5.0 °F 67% 29.86 in 10.0 mi NW 11.5 mph 26.5 mph N/A   Scattered Clouds
6:01 PM 14.0 °F -2.5 °F 5.0 °F 67% 29.87 in 10.0 mi NW 17.3 mph 33.4 mph N/A   Scattered Clouds
6:21 PM 14.0 °F -1.4 °F 5.0 °F 67% 29.88 in 10.0 mi NW 15.0 mph 33.4 mph N/A   Scattered Clouds
6:41 PM 14.0 °F -2.0 °F 5.0 °F 67% 29.88 in 10.0 mi NW 16.1 mph 28.8 mph N/A Snow Light Snow
7:03 PM 14.0 °F -2.0 °F 5.0 °F 67% 29.88 in 10.0 mi NW 16.1 mph 32.2 mph N/A   Mostly Cloudy
7:21 PM 14.0 °F -2.0 °F 5.0 °F 67% 29.89 in 10.0 mi NW 16.1 mph 31.1 mph N/A   Overcast
7:41 PM 14.0 °F -4.3 °F 5.0 °F 67% 29.88 in 7.0 mi NW 21.9 mph 27.6 mph N/A Snow Light Snow
8:01 PM 14.0 °F -2.0 °F 5.0 °F 67% 29.90 in 5.0 mi NW 16.1 mph 28.8 mph N/A Snow Light Snow
8:21 PM 14.0 °F -0.8 °F 5.0 °F 67% 29.90 in 7.0 mi NW 13.8 mph 27.6 mph N/A Snow Light Snow
8:41 PM 14.0 °F 2.0 °F 5.0 °F 67% 29.90 in 10.0 mi NW 9.2 mph 21.9 mph N/A Snow Light Snow
9:01 PM 14.0 °F -0.8 °F 5.0 °F 67% 29.90 in 10.0 mi WNW 13.8 mph 31.1 mph N/A   Overcast
9:21 PM 14.0 °F 0.5 °F 5.0 °F 67% 29.91 in 7.0 mi NW 11.5 mph 26.5 mph N/A Snow Light Snow
9:43 PM 14.0 °F -3.4 °F 5.0 °F 67% 29.90 in 10.0 mi NW 19.6 mph 31.1 mph N/A Snow Light Snow
10:03 PM 14.0 °F -2.5 °F 5.0 °F 67% 29.90 in 5.0 mi NW 17.3 mph 26.5 mph N/A Snow Light Snow
10:21 PM 14.0 °F -0.8 °F 5.0 °F 67% 29.91 in 7.0 mi NW 13.8 mph 31.1 mph N/A Snow Light Snow
10:41 PM 14.0 °F -0.2 °F 5.0 °F 67% 29.91 in 4.0 mi NW 12.7 mph 32.2 mph N/A Snow Light Snow
11:01 PM 14.0 °F -0.8 °F 6.8 °F 73% 29.91 in 4.0 mi NW 13.8 mph 32.2 mph N/A Snow Light Snow
11:21 PM 14.0 °F 2.0 °F 6.8 °F 73% 29.91 in 5.0 mi NW 9.2 mph 21.9 mph N/A Snow Light Snow
11:41 PM 14.0 °F 8.2 °F 6.8 °F 73% 29.92 in 5.0 mi WNW 3.5 mph - N/A Snow Light Snow